Content
SEND FEEDBACK

Daily
Averages
Monthly
Summary
United States of America

LANGLEY, OKLAHOMA


Home > North America > United States > Oklahoma
Elevation: 770 feet     Latitude: 36 28N     Longitude: 095 03W

WEATHER
 
SELECT A DAY
Number of Records: 341,221;   Date Range: 1/8/01 - 12/18/14
 
SHARE

PRINT THIS DATA

[ ← Previous Day ]
WEATHER ALMANAC - JANUARY 23, 2013
[ Next Day → ]
[ °C ]   °F
Weather ElementAverageHighLow
Temperature40.8 °F59 °F (2:55 pm)24.8 °F (5:55 am)
Dewpoint34.1 °F41 °F (1:15 pm)24.8 °F (5:55 am)
Humidity80.2 %100 % (12:35 am)51 % (2:55 pm)
Barometer30.22 in30.28 in (11:55 pm)30.15 in (4:35 pm)
Wind Speed1.5 mph9.2 mph (11:55 am)
Weather ElementAverage
Visibility9.6 mi
Wind DirectionENE (61.2 °)

Weather ElementTotal
Precipitation---
Heating Degree Days23.1 (Base 65)
Averaged from 68 records on January 23, 2013
WEATHER CONDITIONS BREAKOUT
WIND DIRECTION BREAKOUT
WEATHER BY HOUR - JANUARY 23, 2013
[ °C ]   °F
Local TimeTemperatureDewpointHumidityBarometerVisibilityWind DirectionWind SpeedGust SpeedPrecipitationEventsConditions
12:35 AM28.4 °F28.4 °F100 %30.26 inCalm
12:55 AM26.6 °F26.6 °F100 %30.26 inCalm
1:15 AM26.6 °F26.6 °F100 %30.25 inCalm
1:35 AM26.6 °F26.6 °F100 %30.25 inCalm
1:55 AM26.6 °F26.6 °F100 %30.26 inCalm
2:15 AM26.6 °F26.6 °F100 %30.25 inCalm
2:35 AM26.6 °F26.6 °F100 %30.25 inCalm
2:55 AM26.6 °F26.6 °F100 %30.26 inCalm
3:15 AM26.6 °F26.6 °F100 %30.25 in10.0 miCalmClear
3:35 AM26.6 °F26.6 °F100 %30.25 in10.0 miCalmClear
3:55 AM26.6 °F26.6 °F100 %30.25 inCalm
4:15 AM26.6 °F26.6 °F100 %30.25 inCalm
4:35 AM26.6 °F26.6 °F100 %30.24 inCalm
4:55 AM26.6 °F26.6 °F100 %30.24 inCalm
5:15 AM26.6 °F26.6 °F100 %30.24 inCalm
5:35 AM26.6 °F26.6 °F100 %30.23 in10.0 miEast (100°)3.5 mphClear
5:55 AM24.8 °F24.8 °F100 %30.24 inCalm
6:15 AM24.8 °F24.8 °F100 %30.24 inCalm
6:55 AM26.6 °F26.6 °F100 %30.25 in10.0 miCalmClear
7:15 AM26.6 °F26.6 °F100 %30.25 in10.0 miCalmClear
7:35 AM26.6 °F26.6 °F100 %30.25 in7.0 miCalmClear
7:55 AM26.6 °F26.6 °F100 %30.26 in7.0 miCalmClear
8:15 AM28.4 °F28.4 °F100 %30.25 in10.0 miCalmClear
8:35 AM30.2 °F30.2 °F100 %30.25 in10.0 miCalmClear
8:55 AM32.0 °F32.0 °F100 %30.25 in10.0 miCalmClear
9:15 AM33.8 °F32.0 °F93 %30.26 in10.0 miCalmClear
9:35 AM35.6 °F32.0 °F87 %30.26 in10.0 miCalmClear
9:55 AM37.4 °F32.0 °F81 %30.26 in10.0 miCalmClear
10:15 AM42.8 °F33.8 °F70 %30.26 in10.0 miCalmClear
10:35 AM46.4 °F33.8 °F62 %30.26 in10.0 miCalmClear
10:55 AM50.0 °F35.6 °F58 %30.25 in10.0 miSSW (210°)4.6 mphClear
11:15 AM51.8 °F37.4 °F58 %30.25 in10.0 miSW (230°)8.1 mphClear
11:35 AM53.6 °F39.2 °F58 %30.23 in10.0 miSW (230°)8.1 mphClear
11:55 AM53.6 °F39.2 °F58 %30.23 in10.0 miWSW (250°)9.2 mphClear
12:15 PM55.4 °F39.2 °F54 %30.21 in10.0 miWest (270°)4.6 mphClear
12:35 PM55.4 °F39.2 °F54 %30.20 in10.0 miWest (260°)5.8 mphClear
12:55 PM55.4 °F39.2 °F54 %30.19 in10.0 miWNW (300°)4.6 mphClear
1:15 PM55.4 °F41.0 °F58 %30.18 in10.0 miCalmClear
1:35 PM55.4 °F41.0 °F58 %30.17 in10.0 miWNW (290°)4.6 mphClear
1:55 PM55.4 °F41.0 °F58 %30.17 in10.0 miNW (310°)4.6 mphClear
2:15 PM55.4 °F41.0 °F58 %30.17 in10.0 miNW (310°)5.8 mphClear
2:35 PM57.2 °F41.0 °F55 %30.16 in10.0 miWest (280°)3.5 mphClear
2:55 PM59.0 °F41.0 °F51 %30.17 in10.0 miWest (280°)6.9 mphClear
3:15 PM59.0 °F41.0 °F51 %30.16 in10.0 miWest (270°)3.5 mphClear
3:35 PM59.0 °F41.0 °F51 %30.16 in10.0 miCalmClear
3:55 PM59.0 °F41.0 °F51 %30.16 in10.0 miCalmClear
4:15 PM59.0 °F41.0 °F51 %30.16 in10.0 miCalmClear
4:35 PM57.2 °F41.0 °F55 %30.15 in10.0 miNorth (350°)3.5 mphClear
4:55 PM59.0 °F41.0 °F51 %30.15 in10.0 miCalmClear
5:15 PM57.2 °F41.0 °F55 %30.16 in10.0 miCalmClear
5:35 PM53.6 °F41.0 °F62 %30.16 in10.0 miCalmClear
5:55 PM50.0 °F41.0 °F71 %30.16 in10.0 miCalmClear
6:15 PM50.0 °F41.0 °F71 %30.16 in10.0 miCalmClear
6:35 PM46.4 °F39.2 °F76 %30.17 inCalmClear
6:55 PM42.8 °F37.4 °F81 %30.19 in10.0 miCalmClear
7:15 PM42.8 °F39.2 °F87 %30.20 in10.0 miCalmClear
7:35 PM41.0 °F37.4 °F87 %30.21 in10.0 miCalmClear
7:55 PM41.0 °F37.4 °F87 %30.21 in10.0 miCalmClear
8:15 PM41.0 °F37.4 °F87 %30.22 in7.0 miCalmClear
8:35 PM41.0 °F37.4 °F87 %30.21 in7.0 miCalmClear
8:55 PM39.2 °F37.4 °F93 %30.23 in7.0 miCalmClear
9:15 PM41.0 °F41.0 °F100 %30.23 in7.0 miCalmClear
9:35 PM37.4 °F37.4 °F100 %30.24 inCalm
9:55 PM41.0 °F37.4 °F87 %30.24 inENE (60°)3.5 mph
10:15 PM41.0 °F37.4 °F87 %30.25 inCalm
10:35 PM42.8 °F35.6 °F76 %30.26 inNE (50°)5.8 mphClear
11:15 PM44.6 °F32.0 °F61 %30.27 inENE (60°)4.6 mphOvercast
11:55 PM44.6 °F32.0 °F61 %30.28 inNE (50°)8.1 mphOvercast
Hourly data recorded from KGMJ, located miles away from Langley, Oklahoma







STORIES FROM OUR PARTNERS